PSCTB SNIO-SNIB

Flight info

Callsign PSCTB
Flight time 0h 52m
Altitude 8500
Route 1129S03845W 1152S03909W 1209S03944W DCT 1216S04005W
Aircraft C208/L-SDFGR/C

Departure

Time 2026-04-20 16:39
Airport Cipó Airport (SNIO)

Arrival

Time 2026-04-20 17:31
Airport Itaberaba Airport (SNIB)
Time Latitude Longitude Altitude Speed Heading
2026-04-20 16:33 -11.12389 -38.49289 755 ft 0 kts 114°
2026-04-20 16:34 -11.12385 -38.49298 753 ft 3 kts 112°
2026-04-20 16:34 -11.12382 -38.49309 753 ft 1 kts 85°
2026-04-20 16:34 -11.12386 -38.49316 753 ft 1 kts 33°
2026-04-20 16:35 -11.12392 -38.49319 754 ft 0 kts 28°
2026-04-20 16:36 -11.12387 -38.49317 753 ft 3 kts 27°
2026-04-20 16:37 -11.12384 -38.49315 754 ft 0 kts 29°
2026-04-20 16:37 -11.12367 -38.49306 754 ft 9 kts 26°
2026-04-20 16:37 -11.12310 -38.49280 752 ft 8 kts 64°
2026-04-20 16:37 -11.12318 -38.49243 755 ft 2 kts 113°
2026-04-20 16:38 -11.12337 -38.49195 756 ft 30 kts 111°
2026-04-20 16:38 -11.12476 -38.48830 751 ft 79 kts 111°
2026-04-20 16:38 -11.12723 -38.48225 870 ft 97 kts 114°
2026-04-20 16:38 -11.12938 -38.47593 1147 ft 96 kts 119°
2026-04-20 16:39 -11.13520 -38.47213 1276 ft 112 kts 172°
2026-04-20 16:39 -11.14293 -38.47538 1399 ft 135 kts 225°
2026-04-20 16:39 -11.14595 -38.48477 1524 ft 149 kts 268°
2026-04-20 16:39 -11.14889 -38.49452 1629 ft 153 kts 232°
2026-04-20 16:40 -11.15665 -38.50176 1733 ft 154 kts 213°
2026-04-20 16:40 -11.16545 -38.50847 1834 ft 160 kts 213°
2026-04-20 16:40 -11.17457 -38.51538 1925 ft 164 kts 213°
2026-04-20 16:40 -11.18368 -38.52233 2003 ft 166 kts 213°
2026-04-20 16:41 -11.19297 -38.52941 2088 ft 166 kts 213°
2026-04-20 16:41 -11.20227 -38.53647 2169 ft 168 kts 213°
2026-04-20 16:41 -11.21162 -38.54361 2238 ft 169 kts 213°
2026-04-20 16:41 -11.22086 -38.55060 2348 ft 164 kts 213°
2026-04-20 16:42 -11.22972 -38.55735 2537 ft 158 kts 213°
2026-04-20 16:42 -11.23851 -38.56404 2750 ft 158 kts 213°
2026-04-20 16:42 -11.24741 -38.57074 2936 ft 158 kts 213°
2026-04-20 16:42 -11.25604 -38.57731 3134 ft 154 kts 213°
2026-04-20 16:43 -11.26462 -38.58378 3330 ft 154 kts 213°
2026-04-20 16:43 -11.27320 -38.59030 3525 ft 155 kts 213°
2026-04-20 16:43 -11.28189 -38.59694 3732 ft 157 kts 213°
2026-04-20 16:43 -11.29070 -38.60363 3932 ft 158 kts 213°
2026-04-20 16:44 -11.29942 -38.61023 4131 ft 157 kts 213°
2026-04-20 16:44 -11.30828 -38.61694 4333 ft 157 kts 213°
2026-04-20 16:44 -11.31696 -38.62357 4523 ft 156 kts 213°
2026-04-20 16:44 -11.32556 -38.63009 4719 ft 153 kts 213°
2026-04-20 16:45 -11.33408 -38.63657 4924 ft 152 kts 213°
2026-04-20 16:45 -11.34262 -38.64303 5116 ft 152 kts 213°
2026-04-20 16:45 -11.35101 -38.64942 5310 ft 151 kts 213°
2026-04-20 16:45 -11.35945 -38.65582 5508 ft 150 kts 213°
2026-04-20 16:46 -11.36773 -38.66211 5708 ft 150 kts 213°
2026-04-20 16:46 -11.37620 -38.66856 5909 ft 151 kts 213°
2026-04-20 16:46 -11.38462 -38.67495 6099 ft 152 kts 213°
2026-04-20 16:46 -11.39305 -38.68134 6308 ft 152 kts 213°
2026-04-20 16:47 -11.40155 -38.68779 6505 ft 152 kts 213°
2026-04-20 16:47 -11.41005 -38.69427 6709 ft 152 kts 213°
2026-04-20 16:47 -11.41849 -38.70069 6914 ft 152 kts 213°
2026-04-20 16:47 -11.42699 -38.70715 7105 ft 152 kts 213°
2026-04-20 16:48 -11.43541 -38.71354 7304 ft 152 kts 213°
2026-04-20 16:48 -11.44389 -38.71998 7502 ft 152 kts 213°
2026-04-20 16:48 -11.45240 -38.72646 7705 ft 151 kts 213°
2026-04-20 16:48 -11.46080 -38.73286 7909 ft 152 kts 213°
2026-04-20 16:49 -11.46932 -38.73932 8099 ft 152 kts 213°
2026-04-20 16:49 -11.47780 -38.74578 8299 ft 152 kts 213°
2026-04-20 16:49 -11.48614 -38.75265 8401 ft 160 kts 222°
2026-04-20 16:49 -11.49399 -38.76104 8412 ft 169 kts 223°
2026-04-20 16:50 -11.50238 -38.76983 8417 ft 174 kts 223°
2026-04-20 16:50 -11.51102 -38.77880 8416 ft 178 kts 223°
2026-04-20 16:50 -11.51966 -38.78780 8415 ft 180 kts 223°
2026-04-20 16:50 -11.52848 -38.79699 8412 ft 181 kts 223°
2026-04-20 16:51 -11.53720 -38.80608 8415 ft 181 kts 223°
2026-04-20 16:51 -11.54604 -38.81530 8414 ft 181 kts 223°
2026-04-20 16:51 -11.55487 -38.82450 8413 ft 182 kts 223°
2026-04-20 16:51 -11.56366 -38.83367 8413 ft 182 kts 223°
2026-04-20 16:52 -11.57263 -38.84301 8412 ft 182 kts 223°
2026-04-20 16:52 -11.58139 -38.85213 8413 ft 181 kts 223°
2026-04-20 16:52 -11.59015 -38.86129 8412 ft 181 kts 223°
2026-04-20 16:52 -11.59889 -38.87039 8413 ft 181 kts 223°
2026-04-20 16:53 -11.60764 -38.87952 8412 ft 181 kts 223°
2026-04-20 16:53 -11.61644 -38.88868 8411 ft 181 kts 223°
2026-04-20 16:53 -11.62529 -38.89792 8411 ft 180 kts 223°
2026-04-20 16:53 -11.63400 -38.90700 8412 ft 181 kts 223°
2026-04-20 16:54 -11.64284 -38.91623 8412 ft 181 kts 223°
2026-04-20 16:54 -11.65169 -38.92545 8412 ft 181 kts 223°
2026-04-20 16:54 -11.66040 -38.93454 8413 ft 181 kts 223°
2026-04-20 16:54 -11.66931 -38.94383 8413 ft 182 kts 223°
2026-04-20 16:55 -11.67808 -38.95300 8412 ft 181 kts 223°
2026-04-20 16:55 -11.68687 -38.96217 8413 ft 181 kts 223°
2026-04-20 16:55 -11.69573 -38.97140 8412 ft 181 kts 223°
2026-04-20 16:55 -11.70410 -38.98015 8413 ft 181 kts 223°
2026-04-20 16:56 -11.71293 -38.98936 8412 ft 181 kts 223°
2026-04-20 16:56 -11.72174 -38.99856 8413 ft 181 kts 223°
2026-04-20 16:56 -11.73052 -39.00772 8412 ft 181 kts 223°
2026-04-20 16:56 -11.73937 -39.01695 8412 ft 181 kts 223°
2026-04-20 16:57 -11.74820 -39.02619 8412 ft 181 kts 223°
2026-04-20 16:57 -11.75692 -39.03529 8412 ft 181 kts 223°
2026-04-20 16:57 -11.76578 -39.04455 8413 ft 181 kts 223°
2026-04-20 16:57 -11.77452 -39.05368 8412 ft 181 kts 223°
2026-04-20 16:58 -11.78342 -39.06298 8412 ft 181 kts 223°
2026-04-20 16:58 -11.79212 -39.07207 8412 ft 181 kts 223°
2026-04-20 16:58 -11.80098 -39.08132 8412 ft 181 kts 223°
2026-04-20 16:58 -11.80892 -39.08962 8412 ft 181 kts 223°
2026-04-20 16:59 -11.81779 -39.09890 8412 ft 181 kts 223°
2026-04-20 16:59 -11.82652 -39.10800 8412 ft 181 kts 223°
2026-04-20 16:59 -11.83535 -39.11725 8412 ft 181 kts 223°
2026-04-20 16:59 -11.84411 -39.12640 8412 ft 181 kts 223°
2026-04-20 17:00 -11.86177 -39.14486 8411 ft 180 kts 223°
2026-04-20 17:00 -11.86924 -39.15486 8401 ft 180 kts 242°
2026-04-20 17:00 -11.87440 -39.16613 8404 ft 181 kts 242°
2026-04-20 17:01 -11.88002 -39.17756 8405 ft 182 kts 241°
2026-04-20 17:01 -11.88576 -39.18921 8407 ft 183 kts 241°
2026-04-20 17:01 -11.89137 -39.20068 8408 ft 183 kts 241°
2026-04-20 17:01 -11.89708 -39.21241 8409 ft 184 kts 241°
2026-04-20 17:02 -11.90273 -39.22401 8411 ft 184 kts 241°
2026-04-20 17:02 -11.90845 -39.23580 8409 ft 184 kts 241°
2026-04-20 17:02 -11.91411 -39.24739 8410 ft 184 kts 241°
2026-04-20 17:02 -11.91979 -39.25907 8410 ft 184 kts 241°
2026-04-20 17:03 -11.92551 -39.27082 8410 ft 184 kts 241°
2026-04-20 17:03 -11.93113 -39.28236 8410 ft 183 kts 241°
2026-04-20 17:03 -11.93684 -39.29412 8410 ft 184 kts 241°
2026-04-20 17:03 -11.94255 -39.30585 8410 ft 184 kts 241°
2026-04-20 17:04 -11.94818 -39.31742 8409 ft 183 kts 241°
2026-04-20 17:04 -11.95388 -39.32915 8410 ft 183 kts 241°
2026-04-20 17:04 -11.95949 -39.34069 8408 ft 183 kts 241°
2026-04-20 17:04 -11.96519 -39.35240 8410 ft 183 kts 241°
2026-04-20 17:05 -11.97082 -39.36399 8410 ft 183 kts 241°
2026-04-20 17:05 -11.97652 -39.37570 8410 ft 183 kts 241°
2026-04-20 17:05 -11.98216 -39.38732 8409 ft 184 kts 241°
2026-04-20 17:05 -11.98781 -39.39894 8410 ft 183 kts 241°
2026-04-20 17:06 -11.99352 -39.41067 8410 ft 183 kts 241°
2026-04-20 17:06 -11.99916 -39.42230 8410 ft 184 kts 241°
2026-04-20 17:06 -12.00489 -39.43408 8410 ft 184 kts 241°
2026-04-20 17:06 -12.01052 -39.44571 8410 ft 184 kts 242°
2026-04-20 17:07 -12.01613 -39.45732 8413 ft 184 kts 241°
2026-04-20 17:07 -12.02185 -39.46904 8414 ft 184 kts 241°
2026-04-20 17:07 -12.02758 -39.48081 8413 ft 184 kts 241°
2026-04-20 17:07 -12.03328 -39.49256 8414 ft 184 kts 242°
2026-04-20 17:08 -12.03891 -39.50415 8414 ft 184 kts 241°
2026-04-20 17:08 -12.04462 -39.51592 8414 ft 184 kts 241°
2026-04-20 17:08 -12.05025 -39.52753 8413 ft 184 kts 241°
2026-04-20 17:08 -12.05575 -39.53887 8413 ft 183 kts 241°
2026-04-20 17:09 -12.06141 -39.55052 8413 ft 184 kts 241°
2026-04-20 17:09 -12.06706 -39.56215 8413 ft 184 kts 242°
2026-04-20 17:09 -12.07275 -39.57390 8413 ft 183 kts 241°
2026-04-20 17:09 -12.07843 -39.58563 8413 ft 183 kts 241°
2026-04-20 17:10 -12.08405 -39.59721 8413 ft 184 kts 241°
2026-04-20 17:10 -12.08974 -39.60895 8413 ft 184 kts 242°
2026-04-20 17:10 -12.09539 -39.62058 8413 ft 183 kts 241°
2026-04-20 17:10 -12.10109 -39.63236 8412 ft 184 kts 242°
2026-04-20 17:11 -12.10669 -39.64390 8413 ft 183 kts 241°
2026-04-20 17:11 -12.11234 -39.65557 8414 ft 184 kts 242°
2026-04-20 17:11 -12.11805 -39.66736 8413 ft 184 kts 241°
2026-04-20 17:11 -12.12371 -39.67903 8415 ft 184 kts 242°
2026-04-20 17:12 -12.12942 -39.69082 8413 ft 185 kts 241°
2026-04-20 17:12 -12.13510 -39.70252 8412 ft 185 kts 242°
2026-04-20 17:12 -12.14078 -39.71432 8408 ft 183 kts 242°
2026-04-20 17:12 -12.14642 -39.72588 8411 ft 183 kts 241°
2026-04-20 17:13 -12.15168 -39.73787 8408 ft 184 kts 249°
2026-04-20 17:13 -12.15564 -39.75026 8407 ft 184 kts 250°
2026-04-20 17:13 -12.15977 -39.76269 8408 ft 184 kts 249°
2026-04-20 17:13 -12.16391 -39.77499 8408 ft 184 kts 249°
2026-04-20 17:14 -12.16808 -39.78747 8408 ft 184 kts 249°
2026-04-20 17:14 -12.17223 -39.79987 8408 ft 184 kts 249°
2026-04-20 17:14 -12.17637 -39.81228 8408 ft 184 kts 249°
2026-04-20 17:14 -12.18049 -39.82462 8409 ft 185 kts 249°
2026-04-20 17:15 -12.18462 -39.83699 8408 ft 185 kts 249°
2026-04-20 17:15 -12.18878 -39.84951 8407 ft 185 kts 249°
2026-04-20 17:15 -12.19289 -39.86179 8410 ft 185 kts 249°
2026-04-20 17:15 -12.19709 -39.87435 8409 ft 185 kts 249°
2026-04-20 17:16 -12.20121 -39.88672 8409 ft 185 kts 249°
2026-04-20 17:16 -12.20535 -39.89920 8409 ft 184 kts 249°
2026-04-20 17:16 -12.20811 -39.90745 8409 ft 184 kts 249°
2026-04-20 17:16 -12.21360 -39.92390 8409 ft 184 kts 249°
2026-04-20 17:17 -12.21777 -39.93640 8407 ft 184 kts 249°
2026-04-20 17:17 -12.22191 -39.94886 8408 ft 184 kts 249°
2026-04-20 17:17 -12.22602 -39.96117 8408 ft 184 kts 249°
2026-04-20 17:17 -12.23012 -39.97352 8408 ft 184 kts 249°
2026-04-20 17:18 -12.23286 -39.98174 8408 ft 184 kts 249°
2026-04-20 17:18 -12.23837 -39.99827 8409 ft 184 kts 249°
2026-04-20 17:18 -12.24114 -40.00658 8409 ft 185 kts 249°
2026-04-20 17:18 -12.24526 -40.01896 8410 ft 185 kts 249°
2026-04-20 17:19 -12.24943 -40.03149 8408 ft 185 kts 249°
2026-04-20 17:19 -12.25355 -40.04389 8410 ft 185 kts 249°
2026-04-20 17:19 -12.25771 -40.05637 8409 ft 185 kts 249°
2026-04-20 17:19 -12.26318 -40.07281 8409 ft 185 kts 249°
2026-04-20 17:20 -12.26651 -40.08086 8408 ft 183 kts 237°
2026-04-20 17:20 -12.27522 -40.09027 8408 ft 180 kts 214°
2026-04-20 17:20 -12.28502 -40.09794 8412 ft 180 kts 215°
2026-04-20 17:20 -12.29489 -40.10590 8411 ft 180 kts 215°
2026-04-20 17:21 -12.30466 -40.11376 8413 ft 181 kts 215°
2026-04-20 17:21 -12.31464 -40.12176 8413 ft 181 kts 215°
2026-04-20 17:21 -12.32446 -40.12963 8414 ft 181 kts 215°
2026-04-20 17:21 -12.33431 -40.13754 8413 ft 180 kts 215°
2026-04-20 17:22 -12.34424 -40.14549 8414 ft 181 kts 215°
2026-04-20 17:22 -12.35406 -40.15337 8414 ft 181 kts 215°
2026-04-20 17:22 -12.36404 -40.16137 8415 ft 181 kts 215°
2026-04-20 17:22 -12.37387 -40.16925 8415 ft 181 kts 215°
2026-04-20 17:23 -12.38379 -40.17722 8392 ft 182 kts 215°
2026-04-20 17:23 -12.39395 -40.18532 8145 ft 186 kts 215°
2026-04-20 17:23 -12.40409 -40.19342 7894 ft 183 kts 215°
2026-04-20 17:23 -12.41415 -40.20153 7639 ft 182 kts 215°
2026-04-20 17:24 -12.42396 -40.20944 7393 ft 181 kts 215°
2026-04-20 17:24 -12.43395 -40.21746 7140 ft 181 kts 215°
2026-04-20 17:24 -12.44389 -40.22546 6888 ft 180 kts 216°
2026-04-20 17:24 -12.45343 -40.23312 6652 ft 180 kts 215°
2026-04-20 17:25 -12.46347 -40.24113 6254 ft 186 kts 215°
2026-04-20 17:25 -12.47396 -40.24898 5763 ft 190 kts 206°
2026-04-20 17:25 -12.48667 -40.25248 5263 ft 187 kts 181°
2026-04-20 17:25 -12.49927 -40.25076 4774 ft 184 kts 159°
2026-04-20 17:26 -12.51027 -40.24422 4273 ft 181 kts 137°
2026-04-20 17:26 -12.51774 -40.23436 3781 ft 167 kts 116°
2026-04-20 17:26 -12.52259 -40.22427 3369 ft 149 kts 117°
2026-04-20 17:26 -12.52754 -40.21470 3118 ft 156 kts 117°
2026-04-20 17:27 -12.53254 -40.20476 2871 ft 159 kts 116°
2026-04-20 17:27 -12.53758 -40.19460 2622 ft 160 kts 116°
2026-04-20 17:27 -12.54276 -40.18471 2365 ft 158 kts 125°
2026-04-20 17:27 -12.55212 -40.17895 2112 ft 163 kts 170°
2026-04-20 17:28 -12.56295 -40.18195 1861 ft 167 kts 213°
2026-04-20 17:28 -12.56903 -40.19125 1615 ft 158 kts 256°
2026-04-20 17:28 -12.56792 -40.20194 1602 ft 153 kts 296°
2026-04-20 17:28 -12.56089 -40.20930 1604 ft 153 kts 336°
2026-04-20 17:29 -12.55080 -40.21260 1616 ft 153 kts 347°
2026-04-20 17:29 -12.54055 -40.21591 1615 ft 154 kts 345°
2026-04-20 17:29 -12.53082 -40.21922 1601 ft 138 kts 344°
2026-04-20 17:29 -12.52321 -40.22409 1590 ft 124 kts 309°
2026-04-20 17:30 -12.51929 -40.23148 1602 ft 111 kts 297°
2026-04-20 17:30 -12.51594 -40.23836 1531 ft 104 kts 296°
2026-04-20 17:30 -12.51294 -40.24461 1445 ft 90 kts 296°
2026-04-20 17:30 -12.51004 -40.25018 1311 ft 88 kts 301°
2026-04-20 17:31 -12.50719 -40.25569 1168 ft 87 kts 297°
2026-04-20 17:31 -12.50447 -40.26108 1015 ft 85 kts 298°
2026-04-20 17:31 -12.50181 -40.26623 931 ft 74 kts 298°
2026-04-20 17:31 -12.50002 -40.26988 939 ft 40 kts 295°
2026-04-20 17:32 -12.49920 -40.27172 943 ft 18 kts 294°
2026-04-20 17:32 -12.49903 -40.27165 943 ft 23 kts 124°
2026-04-20 17:32 -12.50008 -40.26967 938 ft 39 kts 120°
2026-04-20 17:32 -12.50087 -40.26832 934 ft 14 kts 157°
2026-04-20 17:33 -12.50168 -40.26863 931 ft 8 kts 179°
2026-04-20 17:33 -12.50168 -40.26840 932 ft 0 kts 10°